Regional Weather Roundup
Issued by NWS Albany, NY

Home | Current Version | Previous Version | Text Only | Print | Product List | Glossary On
Versions: 1 2 3 4 5 6 7 8 9 10 11 12 13 14 15 16 17 18 19 20 21 22 23 24 25 26 27 28 29 30 31 32 33 34 35 36 37 38 39 40 41 42 43 44 45 46 47 48 49 50
000
ASUS41 KALY 190710
RWRALY

NEW YORK STATE HOURLY WEATHER ROUNDUP
NATIONAL WEATHER SERVICE ALBANY NY
200 AM EST FRI JAN 19 2018

NOTE: "FAIR" INDICATES FEW OR NO CLOUDS BELOW 12,000 FEET WITH NO
SIGNIFICANT WEATHER AND/OR NO OBSTRUCTIONS TO VISIBILITY.

NYZ032-033-038>043-046>054-057>066-NYZ062>081-082-084-190800-
EAST


CITY           SKY/WX    TMP DP  RH WIND       PRES   REMARKS
ALBANY         CLOUDY    22  14  71 CALM      30.00F
GLENS FALLS    CLOUDY    22  17  81 S5        29.96F WCI  16
POUGHKEEPSIE   FAIR       6   2  83 CALM      30.02R
MONTGOMERY     FAIR      10   6  84 CALM      30.00S
WHITE PLAINS   FAIR      21  12  68 W7        30.00R WCI  12
ISLIP          FAIR      22  14  71 W6        30.03R WCI  14
NEW YORK CITY  FAIR      26  12  55 W8        30.04S WCI  18
CENTRAL PARK   FAIR      25  12  58 W5        30.06S WCI  19
$$

NYZ005>009-017-018-044>046-055-056-190800-
CENTRAL


CITY           SKY/WX    TMP DP  RH WIND       PRES   REMARKS
FULTON         FAIR      20  12  71 CALM      29.95F
SYRACUSE       CLOUDY    19  14  81 E3        29.96F
ROME           CLOUDY    19  13  77 E5        29.99F WCI  12
ELMIRA         FAIR      11   7  84 CALM      29.97R
BINGHAMTON     FAIR      16   9  74 SW6       29.91R WCI   7
MONTICELLO     FAIR       7   5  91 W3        29.95S
$$

NYZ026>034-041>043-087-190800-
NORTH


CITY           SKY/WX    TMP DP  RH WIND       PRES   REMARKS
WATERTOWN      CLOUDY    23  15  71 S8        29.92F WCI  14
FORT DRUM      NOT AVBL
OGDENSBURG     LGT SNOW  26  23  89 SW5       29.91S WCI  20
MASSENA        CLOUDY    25  22  88 SW10      29.92F WCI  15
SARANAC LAKE   CLOUDY    19  18  95 MISG      29.83R FOG
PLATTSBURGH    CLOUDY    27  19  72 SW6       29.91F WCI  20
$$

NYZ001>004-010>016-019>021-085-190800-
WEST


CITY           SKY/WX    TMP DP  RH WIND       PRES   REMARKS
NIAGARA FALLS  FAIR      28  16  60 SW18G26   29.92F WCI  15
BUFFALO        FAIR      27  16  63 SW21G33   29.93S WCI  13
DUNKIRK        FAIR      27  13  55 SW15G22   29.98R WCI  15
JAMESTOWN      FAIR      19  11  70 SW12      29.94F WCI   7
WELLSVILLE     FAIR      20  11  68 SW15G22   29.91S WCI   6
ROCHESTER      MOCLDY    28  15  58 W16       29.93F WCI  16
PENN YAN       FAIR      19  10  68 S7        29.93F WCI  10
$$

             KEY
       WCI = WIND CHILL INDEX
       VSB = VISIBILITY
       HX  = HEAT INDEX
$$



USA.gov is the U.S. government's official web portal to all federal, state and local government web resources and services.